www.pogodaiklimat.ru
ПОГОДА в Кяокпю
Время
(UTC), дата
00 6.11
03 6.11
06 6.11
09 6.11
12 6.11
03 7.11
06 7.11
09 7.11
12 7.11
00 8.11
03 8.11
06 8.11
09 8.11
12 8.11
00 9.11
03 9.11
06 9.11
09 9.11
12 9.11
00 10.11
03 10.11
06 10.11
09 10.11
12 10.11
00 11.11
03 11.11
06 11.11
09 11.11
12 11.11
00 12.11
03 12.11
06 12.11
09 12.11
12 12.11
Ветер
(напр.,м/с)
Видим. Явления Облачность Т
(С)
Тd
(С)
f
(%)
Тe
(С)
Тes
(С)
Комфортность P
(гПа)
Po
(гПа)
Тmin
(С)
Tmax
(С)
R
(мм)
R24
(мм)
S
(см)
штиль 0 5000 м 8/6 300 м
[Cb cap Ac trans]
+26.7 +25.6 94 +39 +39 очень
душно
1008.3 1007.7 +24.5
штиль 0 8000 м 10/8 300 м
[Cb cap Ac As]
+27.5 +26.2 93 +42 +42 опасность
перегрева
1010.6 1010.0
СЗ 2 8000 м 9/6 300 м
[Cb cap Ac As]
+29.5 +25.1 77 +43 +45 опасность
перегрева
1008.6 1008.0
СЗ 5 8000 м 8/6 1000 м
[Cb cap Ac trans]
+30.8 +25.4 73 +45 +46 опасность
перегрева
1006.4 1005.8
СЗ 2 4000 м 8/5 300 м
[Cb cap Ac trans]
+28.8 +24.8 79 +41 +41 опасность
перегрева
1006.6 1006.0 +31.2
штиль 0 8000 м 9/6 300 м
[Cb cap Ac As]
+29.0 +24.8 78 +41 +43 опасность
перегрева
1010.1 1009.5
ЮЗ 3 8000 м 8/8 300 м
[Cb cap]
+31.6 +24.8 67 +45 +47 опасность
перегрева
1008.8 1008.2
ЮЗ 7 7000 м {гроза} 9/6 300 м
[Cb cap Ac As]
+30.3 +25.3 75 +44 +45 опасность
перегрева
1007.3 1006.7
ЮЗ 3 4000 м гроза, ливневой дождь 10/8 200 м
[Cb cap As op]
+26.0 +24.6 92 +37 +37 очень
душно
1008.6 1008.0 +32.2 15
З 2 5000 м 9/6 300 м
[Cb cap Ac trans]
+26.2 +24.6 91 +37 +37 очень
душно
1009.6 1009.0 +24.5 2
ЮВ 2 8000 м 8/5 300 м
[Cb cap Ac As]
+29.3 +24.8 77 +42 +44 опасность
перегрева
1011.8 1011.2
Ю 7 8000 м 8/6 300 м
[Cb cap Ac As]
+31.0 +23.7 65 +42 +43 опасность
перегрева
1011.4 1010.8
Ю 7 8000 м 9/6 300 м
[Cb cap Ac As]
+30.1 +23.9 69 +41 +42 опасность
перегрева
1009.4 1008.8
ЮВ 2 3000 м 6/5 300 м
[Cb cap Ac trans]
+28.3 +25.0 82 +41 +41 опасность
перегрева
1010.4 1009.8 +31.3
ЮВ 3 5000 м 9/6 300 м
[Cb cap Ac As]
+26.0 +24.6 92 +37 +37 очень
душно
1011.8 1011.2 +25.0
ЮВ 4 8000 м 8/5 300 м
[Cb cap Ac As]
+30.0 +23.9 70 +41 +43 опасность
перегрева
1012.6 1012.0
Ю 7 8000 м в посл. час дождь 9/6 300 м
[Cb cap Ac As]
+29.5 +25.3 78 +43 +44 опасность
перегрева
1011.3 1010.7
ЮЗ 10 8000 м 9/6 300 м
[Cb cap Ac As]
+31.0 +25.4 72 +45 +45 опасность
перегрева
1009.9 1009.3
ЮЗ 3 2000 м слаб. дождь 10/8 200 м
[Cb cap As op]
+25.0 +23.3 90 +33 +33 очень
душно
1011.0 1010.4 +31.3 8
штиль 0 5000 м 10/8 300 м
[Cb cap Ac As]
+24.7 +23.3 92 +33 +33 очень
душно
1011.0 1010.4 +22.5 3
ЮВ 4 8000 м 9/5 300 м
[Cb cap Ac As]
+28.0 +25.0 84 +40 +41 очень
душно
1012.8 1012.2
ЮВ 5 8000 м 8/6 300 м
[Cb cap Ac trans]
+31.3 +25.4 71 +46 +48 опасность
перегрева
1011.6 1011.0
ЮЗ 8 7000 м дождь 10/8 300 м
[Cb cap Ac As]
+26.8 +24.0 85 +37 +37 очень
душно
1009.8 1009.2
Ю 4 2000 м в посл. час дождь 10/8 300 м
[Cb cap Ac As]
+26.0 +24.6 92 +37 +37 очень
душно
1009.8 1009.2 +31.6 10
штиль 0 4000 м слаб. дождь 10/8 200 м
[Cb cap As op]
+24.0 +23.7 98 +33 +33 очень
душно
1010.0 1009.4 +23.0 25
ЮЗ 2 8000 м дождь 10/8 200 м
[Cb cap As op]
+26.0 +26.0 100 +39 +39 очень
душно
1012.5 1011.9
ЮЗ 5 9000 м {дождь} 9/6 300 м
[Cb cap Ac As]
+30.0 +25.3 76 +44 +45 опасность
перегрева
1011.1 1010.5
ЮЗ 3 9000 м 9/6 300 м
[Cb cap Ac As]
+30.0 +23.9 70 +41 +42 опасность
перегрева
1009.6 1009.0
штиль 0 4000 м 10/8 300 м
[Cb cap Ac As]
+27.8 +25.0 85 +40 +40 очень
душно
1009.3 1008.7 +30.5 16
штиль 0 2000 м туман на расстоянии 3/3 300 м
[Cb calv]
+24.0 +24.0 100 +33 +33 очень
душно
1011.0 1010.4 +22.5
СЗ 2 8000 м 5/5 300 м
[Cb cap]
+28.2 +25.9 87 +42 +46 опасность
перегрева
1013.2 1012.6
штиль 0 8000 м 9/6 300 м
[Cb cap Ac As]
+29.0 +25.9 83 +43 +47 опасность
перегрева
1012.4 1011.8
СЗ 5 8000 м 4/4 300 м
[Cu Sc]
+31.0 +23.7 65 +42 +44 опасность
перегрева
1010.6 1010.0
СЗ 5 3000 м 1/1 300 м
[Sc]
+28.0 +23.3 76 +38 +38 очень
душно
1010.4 1009.8 +31.3
Местоположение метеостанции Кяокпю (Мьянма): широта 19.42 долгота 93.55 высота над уровнем моря 5 м.
В архиве по умолчанию представлена погода в Кяокпю за последнюю неделю. Архивные данные за месяц целиком и за предыдущие месяцы, начиная с января 2011 года, Вы можете получить, выбрав интересующий диапазон дат из раскрывающегося списка и нажав кнопку "Найти!".
*Определитесь, кто Вы:
Внимание! Время в таблицах - всемирное. Для получения местного времени необходимо прибавить поправку, которая равна 6.5 ч.
Смотрите также архив погоды в соседних городах и на ближайших метеорологических станциях:
Партнеры нашего сайта:      
Пояснения к столбцам:
  • Ветер - указаны скорость ветра в м/с - средняя за 10 мин, порывы в срок и между сроками (в фигурных скобках) и направление, откуда дует ветер: С - северный,
  • СВ - северо-восточный, В - восточный, ЮВ - юго-восточный, Ю - южный, ЮЗ - юго-западный, З - западный, СЗ - северо-западный.
  • Видимость - горизонтальная дальность видимости в метрах или километрах. При видимости от 1 до 10 км при отсутствии осадков обычно наблюдается дымка, при ухудшении видимости до 1 км и менее - туман. В сухую погоду видимость может ухудшаться дымом, пылью или мглою.
  • Явления - указаны атмосферные явления, наблюдавшиеся в срок или в последний час перед сроком; фигурными скобками обозначены явления, наблюдавшиеся между сроками (за 1-3 часа до срока); квадратными скобками обозначены град или гололедные отложения с указанием их диаметра в мм.
  • Облачность - указаны через наклонную черту общая и нижняя облачность в баллах и высота нижней границы облаков в метрах; квадратными скобками обозначены формы облаков: Ci - перистые, Cs - перисто-слоистые, Cc - перисто-кучевые, Ac - высококучевые, As - высокослоистые, Sc - слоисто-кучевые, Ns - слоисто-дождевые, Cu - кучевые, Cb - кучево-дождевые. Подробнее классификацию облаков см. в Атласе облаков (PDF).
  • T - Температура воздуха - температура, измеренная на высоте 2 м над землей.
  • Td - Температура точки росы - температура, при понижении до которой содержащийся в воздухе водяной пар достигнет насыщения.
  • f - Относительная влажность воздуха - влажноcть воздуха, измеренная на высоте 2 м над землей.
  • Te - Эффективная температура - температура, которую ощущает одетый по сезону человек в тени. Характеристика душности погоды. При расчете учитывается влияние влажности воздуха и скорости ветра на теплоощущения человека.
  • Tes - Эффективная температура на солнце - температура, которую ощущает человек, с поправкой на солнечный нагрев. Характеристика знойности погоды. Зависит от высоты солнца над горизонтом, облачности и скорости ветра. Ночью, в пасмурную погоду, а также при ветре 12 м/с и более поправка равна нулю.
  • P - Атмосферное давление - приведенное к уровню моря атмосферное давление.
  • Po - Атмосферное давление - измеренное на уровне метеостанции атмосферное давление.
  • Tmin - Минимальная температура - минимум температуры воздуха на высоте 2 м над землей.
  • Tmax - Максимальная температура - максимум температуры воздуха на высоте 2 м над землей.
  • R - Количество осадков - Количество выпавших осадков за период времени, мм. При наведении курсора мыши на число - период времени, за который выпало указанное количество осадков.
  • R24 - Количество осадков - Количество выпавших осадков за 24 часа, мм.
  • S - Снежный покров - Высота снежного покрова, см. При наведении курсора мыши на число - состояние снежного покрова и степень покрытия местности в баллах.